Wetbulb
71.12 64.75 64.44 62.78 53.12 51.12 45.23 45.67 45.69 45.43 44.41 44.61 46.34 47.39 48.45 49.38 50.48 47.73 57.23 60.17 60.39 59.41 61.14 61.21 63.56 63.68 63.33 62.66 62.08 62.28 62.86 63.14 63.39 63.65 63.00 63.41 63.28 63.33 63.16 62.54 63.44 63.75 63.07 63.08 62.64 61.61 61.02 60.45 60.14
68.92 65.21 61.72 57.28 47.89 43.05 43.51 44.62 43.71 44.60 46.35 46.26 46.41 47.36 46.58 48.61 55.50 55.58 54.75 60.13 60.15 59.81 60.27 60.28 63.27 62.74 62.85 62.27 61.62 62.06 61.97 63.14 62.49 62.95 63.15 63.04 62.88 62.66 62.86 62.79 62.67 62.68 62.65 62.31 61.84 61.24 60.28 59.85 59.43
65.91 65.29 55.43 52.89 46.64 43.42 43.54 45.16 44.69 46.41 46.14 46.41 44.95 45.79 46.33 49.12 56.41 54.60 56.25 59.34 59.98 59.14 59.75 60.49 63.27 62.71 62.43 62.22 61.74 61.53 61.47 61.83 62.16 61.57 61.97 62.32 62.16 62.29 62.17 62.33 62.13 62.16 62.20 61.92 61.36 60.58 59.80 59.14 59.01
58.88 58.92 56.16 47.35 44.55 47.59 46.28 45.06 47.10 46.37 45.94 46.74 45.64 45.20 47.99 52.92 56.05 55.77 57.68 58.64 59.07 58.75 58.97 62.72 63.10 62.96 62.38 61.71 61.19 60.51 60.85 61.29 60.98 61.19 61.36 60.98 61.47 61.17 61.14 61.34 61.51 61.15 61.02 61.15 60.90 60.07 59.38 58.51 58.41
57.48 55.74 48.68 46.61 47.61 46.63 46.52 48.55 47.70 45.90 45.70 44.91 44.83 43.48 46.15 53.16 56.40 56.37 56.08 57.43 58.03 57.62 58.06 59.76 63.27 63.06 62.06 61.84 60.81 59.74 60.17 60.44 59.62 59.95 59.01 59.23 60.08 59.53 59.72 60.09 60.69 59.99 60.39 59.59 59.58 59.59 58.69 57.71 57.23
51.87 53.73 45.61 43.77 47.30 48.59 46.50 49.09 48.42 46.34 45.06 44.27 44.94 46.12 45.45 53.29 54.37 54.31 55.28 55.14 58.66 57.87 58.31 59.64 62.65 63.28 62.04 61.60 60.61 59.16 58.83 59.14 59.32 58.88 58.46 58.13 57.70 58.72 58.93 59.57 59.73 59.63 59.51 59.02 58.04 58.48 57.87 57.15 56.03
50.54 50.20 46.81 45.92 47.56 47.65 48.35 49.36 46.09 46.05 45.45 45.37 47.35 44.48 46.29 49.81 53.92 54.63 53.80 53.79 56.54 58.22 57.69 57.87 57.83 60.95 61.99 61.48 60.37 59.13 58.16 58.01 58.28 57.87 58.05 56.44 53.97 55.29 56.02 57.94 58.30 57.74 58.27 58.30 57.17 55.90 56.55 55.98 54.92
54.62 52.07 47.45 46.14 46.92 46.20 48.99 50.01 50.45 48.86 46.59 50.20 48.60 43.71 43.62 49.52 54.06 53.88 52.88 52.10 52.33 56.31 57.31 56.32 56.34 57.68 57.16 56.42 60.54 59.16 57.38 56.83 57.38 57.18 56.57 56.56 54.75 53.38 54.05 55.53 54.79 55.78 55.70 55.94 55.88 55.10 53.79 53.27 53.97
56.80 47.11 44.25 46.67 48.09 47.26 50.11 48.80 50.72 50.94 48.19 48.10 47.62 47.95 49.25 53.04 53.55 51.98 49.59 49.05 49.58 52.18 54.12 55.53 55.92 55.64 56.15 55.22 57.84 59.18 57.93 56.59 57.16 56.70 56.44 54.73 51.07 50.37 51.47 53.89 53.17 52.36 53.15 53.01 53.56 53.81 53.63 54.08 54.33
51.09 45.35 47.99 50.47 49.74 48.36 50.47 48.77 49.02 46.89 45.57 44.92 47.44 49.43 51.19 51.79 50.02 50.10 49.00 48.28 48.63 49.12 50.39 54.44 54.80 54.18 55.55 57.60 55.09 52.97 53.45 50.52 50.66 52.31 50.09 49.31 46.12 46.98 51.25 53.72 54.54 53.55 53.59 53.45 54.11 54.57 55.27 54.40 47.21
50.59 47.78 50.56 51.26 53.09 52.38 50.21 49.18 50.34 46.92 43.62 46.16 46.31 48.76 50.18 49.26 48.81 49.52 48.97 48.75 49.03 50.05 50.55 51.79 51.72 52.36 54.42 55.61 53.28 51.89 51.45 49.27 48.82 49.38 48.61 46.55 45.37 44.19 44.76 44.06 47.66 46.28 51.95 47.01 49.69 48.37 47.24 46.26 44.45
46.30 50.77 50.46 52.99 52.23 51.10 48.87 49.99 46.89 47.19 47.46 48.45 49.04 51.13 49.98 48.68 48.72 49.03 49.10 49.09 48.65 49.71 50.92 51.74 51.79 51.19 50.93 50.80 51.75 51.27 50.59 48.96 47.09 47.40 47.35 45.29 44.38 43.98 42.74 43.68 45.54 45.39 45.23 44.96 43.28 43.33 43.63 43.63 44.34
45.02 47.76 49.56 49.65 48.66 47.41 47.87 45.57 45.85 46.28 49.67 49.05 50.11 50.94 50.13 49.59 48.99 49.55 50.61 50.41 49.58 49.66 50.94 50.78 51.22 50.81 50.62 49.06 48.89 48.65 49.13 49.42 48.45 47.24 47.18 46.20 44.53 43.74 43.88 43.92 43.52 43.75 44.02 43.64 43.48 43.32 43.79 43.20 43.19
45.90 46.87 46.56 47.27 46.92 46.45 44.43 43.97 44.57 46.24 47.93 48.43 49.06 48.06 48.22 49.21 49.52 49.63 49.50 49.86 48.71 50.90 51.54 50.93 51.37 50.95 50.80 48.84 48.12 47.78 47.29 48.45 47.72 46.91 46.70 47.02 45.31 44.28 44.39 43.99 43.75 43.14 43.50 43.79 43.38 43.03 42.67 42.63 42.70
46.31 41.70 42.99 43.83 45.08 44.81 46.03 41.98 43.82 46.02 45.86 46.89 46.39 45.62 46.98 47.94 49.40 49.41 51.21 49.27 48.73 50.17 52.14 51.22 51.34 51.44 50.17 49.14 48.33 47.80 48.17 48.35 46.88 47.07 47.33 46.48 46.00 44.53 44.38 43.12 42.78 43.70 43.72 44.11 43.18 43.22 43.01 42.55 43.73
41.83 40.37 37.31 44.05 45.54 45.66 43.46 38.75 46.40 46.25 44.22 43.82 44.82 44.11 46.08 46.72 47.83 48.35 50.22 49.65 48.62 49.27 50.66 51.59 54.31 51.92 50.42 49.08 48.23 48.75 48.34 47.96 47.22 46.96 46.87 47.46 47.32 45.60 44.17 43.86 43.72 44.30 44.03 43.49 42.78 42.33 42.32 42.04 41.94
39.72 35.36 37.59 41.98 46.16 44.67 41.59 38.71 45.10 45.50 44.19 43.33 42.13 42.61 44.70 45.81 46.69 47.62 49.22 49.62 49.16 48.52 50.99 50.71 50.56 51.22 50.69 49.80 48.91 48.21 48.72 47.86 47.96 47.49 47.02 47.56 47.67 47.22 44.86 44.46 44.63 45.06 44.03 43.45 43.27 43.02 41.92 41.36 41.37
34.62 35.55 36.88 38.06 42.40 42.91 40.09 39.91 43.15 44.77 44.08 43.66 43.13 42.52 42.67 45.04 46.74 47.84 48.98 49.55 49.34 48.31 49.58 51.08 50.49 49.81 50.29 49.75 48.72 47.60 47.45 47.41 47.51 47.55 47.45 48.18 47.68 47.23 45.17 44.64 44.57 44.87 43.69 43.19 42.75 42.22 42.33 42.07 41.76
38.96 37.11 35.97 38.42 42.87 40.05 39.04 39.10 41.59 43.83 42.98 41.81 41.70 42.02 42.12 44.38 48.14 48.92 48.97 49.24 48.60 47.65 47.48 48.90 48.46 48.35 48.85 47.00 46.52 45.83 45.40 45.66 46.46 47.01 48.24 48.27 47.70 47.72 45.65 44.82 44.59 44.50 43.63 43.30 43.31 42.43 41.91 41.43 42.21
39.95 37.30 36.89 40.03 42.77 39.25 38.10 38.69 41.12 42.98 43.00 44.17 43.55 42.71 43.40 42.60 44.12 46.21 47.78 47.69 48.17 47.78 46.86 47.00 49.62 48.27 48.93 48.05 46.54 46.61 45.43 45.52 46.18 47.18 47.73 48.03 47.73 47.63 46.67 45.26 45.02 44.82 44.05 43.59 43.08 42.52 41.35 41.43 41.96
38.96 36.83 36.35 36.71 40.48 40.43 37.50 37.24 39.20 41.97 43.05 44.12 44.67 45.10 45.01 44.23 44.77 45.57 46.35 47.57 46.95 46.84 46.77 47.38 47.82 48.56 48.23 47.53 46.55 45.53 45.08 45.25 45.34 45.93 46.12 47.08 47.67 47.66 47.10 46.15 45.38 45.02 44.26 43.82 43.43 42.81 41.71 41.00 41.46
36.39 41.10 41.19 40.52 36.50 32.73 37.85 31.95 36.08 39.35 41.20 42.70 42.94 42.98 44.68 44.39 45.02 47.29 48.17 46.23 47.30 48.04 47.32 48.09 48.06 48.05 48.05 47.43 46.50 45.44 44.63 44.05 44.61 45.39 46.64 47.67 48.27 47.71 47.64 47.25 45.75 44.98 44.85 44.17 44.15 45.23 43.33 41.86 41.06
39.88 42.50 40.16 39.57 35.02 34.42 35.81 33.12 36.20 38.45 39.15 41.50 41.61 42.34 43.40 44.03 45.29 46.58 48.28 49.37 49.47 48.08 47.68 48.44 48.40 48.25 48.40 47.37 47.35 45.96 44.53 44.85 45.51 46.68 47.12 47.33 47.93 48.29 48.24 47.73 46.49 45.64 45.07 44.48 44.39 44.32 43.38 43.40 42.59
43.40 39.64 39.01 37.71 35.54 30.82 35.36 34.98 34.39 37.77 40.87 39.79 40.63 42.46 43.77 44.35 44.64 46.75 48.60 49.40 49.09 48.63 47.87 47.62 48.55 48.56 48.20 47.74 46.75 46.17 45.35 45.16 45.55 46.10 46.59 47.47 48.48 48.91 48.49 48.29 46.99 46.25 45.88 45.33 45.42 44.43 43.59 43.31 43.24
39.39 34.34 29.85 31.71 30.43 29.70 37.10 34.75 37.48 41.38 43.47 44.21 44.35 43.31 44.19 44.07 44.71 45.34 46.64 47.00 47.98 48.05 48.08 48.72 48.75 48.61 48.44 47.59 47.13 46.70 46.26 45.61 46.21 46.37 46.91 47.61 48.52 48.32 48.80 48.64 47.78 46.80 46.48 45.85 45.21 44.54 43.98 43.36 42.31
36.44 35.28 31.04 28.82 30.56 33.41 38.22 33.68 39.92 44.08 45.62 45.46 45.63 45.03 44.34 43.90 44.61 45.63 46.33 48.34 48.86 49.44 49.15 49.37 48.76 48.43 48.74 48.43 47.79 47.70 47.33 47.69 48.34 48.73 49.17 49.46 49.48 49.37 49.62 49.53 48.83 48.23 47.55 46.88 46.18 45.29 44.99 43.87 43.56
36.89 34.07 37.95 34.73 33.15 31.48 34.80 39.09 43.91 43.29 41.04 42.42 43.32 44.03 44.06 44.31 44.84 46.35 46.86 47.61 48.21 49.29 50.24 50.27 49.24 48.97 49.20 49.35 48.71 48.11 48.24 48.34 49.13 48.96 49.30 49.46 49.52 50.42 49.52 48.82 48.04 48.28 48.08 47.36 46.41 45.40 44.94 44.68 44.14
37.53 39.26 33.04 32.49 26.78 27.39 33.82 34.72 39.14 39.82 41.70 41.88 42.27 43.69 44.10 44.85 45.54 46.57 47.70 47.94 48.58 49.95 50.47 49.33 49.66 50.04 49.88 48.99 49.18 49.84 49.55 49.31 49.67 49.06 48.82 48.76 49.03 48.80 48.73 48.31 47.53 47.20 47.03 46.96 46.26 45.20 44.96 44.22 43.93
35.13 34.40 35.60 34.53 33.72 30.03 30.55 36.84 42.46 42.59 43.00 42.79 42.57 43.95 44.95 45.12 45.84 47.06 47.89 48.60 49.00 48.99 49.03 49.90 49.17 48.93 48.91 49.08 48.80 48.82 49.19 49.46 49.25 48.94 48.94 48.79 48.50 48.44 48.51 48.81 48.29 47.71 47.27 46.87 45.63 44.95 44.94 44.39 44.02
37.06 36.22 35.97 30.83 31.05 32.37 32.03 34.66 44.99 43.85 44.55 43.89 43.41 44.69 45.56 46.28 46.42 47.05 47.51 48.18 48.40 49.11 49.06 50.18 50.13 49.61 49.88 49.92 49.19 49.53 48.70 48.73 48.21 48.07 48.36 48.58 48.32 48.46 48.59 48.43 47.87 47.56 47.32 46.82 45.84 45.16 45.76 44.30 43.78
MSLP
1013.71 1013.18 1013.26 1013.75 1015.49 1016.14 1016.52 1017.01 1016.60 1016.95 1017.09 1017.32 1017.28 1017.73 1019.15 1019.82 1020.64 1021.73 1021.72 1022.00 1022.57 1023.00 1023.22 1023.60 1023.78 1023.84 1023.95 1024.26 1024.30 1024.41 1024.22 1024.23 1024.17 1024.18 1024.03 1023.96 1023.90 1023.84 1023.84 1023.84 1023.55 1023.50 1023.42 1023.40 1023.39 1023.46 1023.36 1023.19 1023.00
1013.76 1013.45 1013.52 1014.50 1015.89 1016.55 1017.22 1017.02 1017.20 1017.19 1017.08 1017.22 1017.49 1018.43 1019.08 1020.62 1020.89 1021.57 1021.94 1022.12 1022.35 1022.80 1023.28 1023.56 1023.79 1023.93 1024.07 1024.36 1024.49 1024.56 1024.48 1024.39 1024.37 1024.32 1024.25 1024.16 1024.18 1024.20 1024.07 1023.95 1023.91 1023.73 1023.63 1023.66 1023.69 1023.73 1023.56 1023.45 1023.24
1013.75 1013.84 1014.77 1015.15 1016.10 1016.43 1016.90 1017.12 1017.02 1017.02 1016.99 1017.31 1017.81 1018.31 1019.41 1020.79 1021.15 1021.43 1021.37 1021.73 1022.33 1022.92 1023.27 1023.55 1023.88 1024.04 1024.24 1024.47 1024.58 1024.71 1024.63 1024.53 1024.50 1024.50 1024.48 1024.46 1024.52 1024.44 1024.36 1024.20 1024.16 1024.10 1023.95 1023.98 1024.00 1023.93 1023.86 1023.72 1023.57
1014.04 1014.20 1014.93 1015.47 1015.94 1015.98 1016.23 1016.68 1016.56 1016.84 1017.11 1017.24 1018.01 1019.34 1019.92 1020.27 1020.96 1021.05 1021.17 1021.73 1022.39 1023.04 1023.33 1023.48 1023.94 1024.09 1024.33 1024.58 1024.74 1024.84 1024.80 1024.69 1024.68 1024.72 1024.74 1024.80 1024.72 1024.74 1024.66 1024.53 1024.45 1024.44 1024.38 1024.32 1024.23 1024.14 1024.04 1024.00 1023.88
1014.28 1015.12 1015.71 1015.66 1015.76 1016.13 1015.84 1015.72 1015.96 1016.69 1017.01 1017.30 1017.73 1019.59 1020.42 1020.92 1020.50 1020.88 1021.29 1021.67 1022.57 1023.16 1023.30 1023.51 1023.90 1024.10 1024.39 1024.59 1024.83 1024.92 1024.95 1024.81 1024.96 1025.00 1025.02 1025.02 1024.97 1024.99 1024.96 1024.91 1024.70 1024.71 1024.64 1024.62 1024.50 1024.42 1024.38 1024.28 1024.17
1015.08 1015.50 1016.11 1016.10 1015.75 1015.72 1015.50 1015.23 1015.68 1016.32 1016.86 1017.18 1018.08 1019.45 1020.78 1020.93 1021.04 1021.21 1021.32 1021.80 1022.29 1022.89 1023.22 1023.47 1023.86 1024.05 1024.41 1024.64 1024.86 1024.96 1025.00 1025.01 1025.03 1025.06 1025.16 1025.22 1025.25 1025.26 1025.28 1025.09 1025.00 1024.90 1024.83 1024.85 1024.78 1024.63 1024.54 1024.51 1024.41
1015.37 1016.08 1016.22 1016.03 1015.86 1015.42 1015.20 1015.00 1015.60 1016.19 1016.67 1017.09 1017.52 1019.60 1020.97 1021.15 1021.05 1021.12 1021.41 1021.58 1022.24 1022.63 1023.05 1023.44 1023.80 1024.00 1024.34 1024.57 1024.83 1024.95 1025.03 1025.09 1025.14 1025.19 1025.34 1025.52 1025.60 1025.56 1025.55 1025.38 1025.23 1025.26 1025.18 1025.09 1025.01 1024.95 1024.86 1024.80 1024.66
1015.12 1015.98 1015.99 1015.67 1015.46 1015.55 1015.15 1015.12 1015.31 1015.95 1016.72 1016.72 1017.23 1019.31 1020.84 1020.73 1020.84 1021.05 1021.46 1021.77 1022.27 1022.61 1022.91 1023.40 1023.66 1023.88 1024.24 1024.54 1024.70 1024.88 1025.07 1025.15 1025.23 1025.26 1025.42 1025.51 1025.57 1025.56 1025.50 1025.47 1025.44 1025.45 1025.40 1025.27 1025.18 1025.12 1025.07 1025.02 1024.89
1014.82 1015.98 1016.00 1015.70 1014.85 1015.24 1015.00 1015.26 1015.44 1015.89 1016.58 1017.11 1017.70 1018.50 1018.80 1019.82 1020.54 1021.21 1021.75 1022.13 1022.26 1022.67 1022.92 1023.23 1023.48 1023.70 1024.07 1024.42 1024.51 1024.69 1024.95 1025.06 1025.16 1025.22 1025.27 1025.33 1025.56 1025.66 1025.64 1025.50 1025.42 1025.41 1025.37 1025.32 1025.23 1025.10 1025.04 1024.99 1024.92
1015.18 1015.96 1015.66 1015.36 1014.96 1014.87 1014.81 1015.13 1015.73 1016.17 1016.86 1017.79 1018.35 1018.89 1019.24 1019.80 1020.49 1021.12 1021.65 1022.09 1022.31 1022.51 1022.72 1022.91 1023.14 1023.55 1023.94 1024.11 1024.36 1024.64 1024.84 1024.97 1025.08 1025.16 1025.30 1025.39 1025.55 1025.44 1025.38 1025.27 1025.28 1025.33 1025.32 1025.26 1025.18 1025.03 1024.93 1024.85 1025.02
1014.84 1015.27 1015.21 1015.19 1015.05 1014.93 1014.77 1015.08 1015.51 1016.08 1016.93 1017.14 1018.12 1018.97 1019.42 1019.97 1020.55 1020.89 1021.34 1021.57 1021.85 1022.05 1022.22 1022.41 1022.68 1023.05 1023.58 1023.83 1024.29 1024.56 1024.63 1024.88 1024.98 1025.09 1025.19 1025.24 1025.26 1025.23 1025.23 1025.40 1025.40 1025.51 1025.28 1025.36 1025.27 1025.22 1025.20 1025.12 1024.99
1014.72 1014.81 1014.81 1015.07 1015.04 1015.12 1015.22 1015.13 1015.54 1015.87 1016.20 1016.18 1017.05 1018.01 1019.09 1019.78 1020.23 1020.51 1020.86 1021.17 1021.44 1021.71 1021.80 1022.08 1022.28 1022.78 1022.98 1023.47 1023.95 1024.07 1024.35 1024.55 1024.72 1024.67 1024.71 1024.96 1025.12 1025.19 1025.28 1025.39 1025.38 1025.43 1025.29 1025.31 1025.30 1025.29 1025.03 1024.88 1024.75
1014.58 1014.76 1014.88 1015.13 1015.29 1015.35 1015.37 1015.52 1015.74 1015.77 1015.69 1016.17 1016.75 1018.01 1018.75 1019.38 1019.72 1020.01 1020.05 1020.29 1020.72 1021.13 1021.35 1021.67 1021.97 1022.42 1022.79 1023.11 1023.45 1023.65 1023.93 1024.02 1024.08 1024.35 1024.45 1024.56 1024.94 1025.15 1025.02 1025.01 1025.03 1024.96 1024.85 1024.96 1024.84 1024.89 1024.69 1024.72 1024.54
1014.77 1014.87 1014.99 1015.18 1015.39 1015.48 1015.72 1015.90 1016.10 1015.29 1015.37 1016.40 1016.86 1017.76 1018.45 1018.82 1019.04 1019.37 1019.59 1019.72 1020.03 1020.37 1020.77 1021.08 1021.60 1021.93 1022.33 1022.87 1023.16 1023.36 1023.52 1023.63 1023.89 1024.05 1024.12 1024.15 1024.50 1024.76 1024.91 1024.88 1024.80 1024.76 1024.63 1024.58 1024.58 1024.61 1024.72 1024.63 1024.42
1014.93 1015.31 1015.40 1015.31 1015.49 1015.81 1015.93 1016.26 1015.54 1015.12 1015.41 1016.39 1016.95 1017.45 1018.02 1018.24 1018.30 1018.49 1018.50 1018.85 1019.11 1019.57 1020.00 1020.52 1020.91 1021.45 1022.04 1022.48 1022.77 1023.02 1023.08 1023.24 1023.60 1023.71 1023.80 1023.97 1024.19 1024.42 1024.39 1024.59 1024.61 1024.47 1024.39 1024.35 1024.52 1024.56 1024.60 1024.68 1024.46
1015.47 1015.80 1015.96 1015.13 1015.54 1015.96 1016.31 1015.86 1014.67 1014.98 1015.55 1016.26 1016.91 1017.26 1017.34 1017.62 1017.56 1017.62 1017.63 1017.93 1018.42 1018.90 1019.59 1019.97 1020.26 1020.95 1021.57 1022.10 1022.44 1022.69 1022.79 1022.99 1023.23 1023.39 1023.52 1023.58 1023.66 1023.80 1024.02 1024.18 1024.29 1024.20 1024.24 1024.27 1024.39 1024.56 1024.75 1024.72 1024.62
1016.02 1016.13 1015.96 1015.74 1015.47 1016.02 1016.52 1015.96 1014.90 1014.83 1015.39 1016.18 1016.50 1016.92 1016.91 1016.86 1016.95 1016.84 1016.84 1017.19 1017.70 1018.20 1018.93 1019.57 1019.94 1020.52 1021.14 1021.56 1022.00 1022.38 1022.51 1022.74 1022.84 1022.99 1023.18 1023.20 1023.20 1023.31 1023.54 1023.78 1023.85 1023.78 1023.98 1024.11 1024.21 1024.39 1024.59 1024.56 1024.36
1016.20 1016.05 1015.55 1015.63 1015.53 1015.81 1016.27 1015.86 1015.31 1015.09 1015.22 1015.55 1015.77 1016.06 1016.34 1016.19 1016.02 1016.02 1016.21 1016.61 1016.99 1017.64 1018.29 1018.90 1019.53 1020.08 1020.74 1021.25 1021.73 1022.15 1022.34 1022.48 1022.59 1022.73 1022.77 1022.69 1022.78 1022.88 1023.12 1023.27 1023.44 1023.51 1023.80 1023.98 1024.18 1024.31 1024.31 1024.25 1024.17
1015.55 1015.68 1015.72 1015.24 1015.17 1015.69 1015.64 1015.43 1014.75 1014.46 1014.85 1014.99 1015.32 1015.22 1015.43 1015.37 1014.89 1015.17 1015.52 1016.06 1016.73 1017.31 1018.02 1018.54 1019.22 1019.75 1020.46 1021.22 1021.78 1022.10 1022.38 1022.41 1022.41 1022.33 1022.17 1022.16 1022.22 1022.31 1022.54 1022.70 1022.91 1023.14 1023.63 1023.72 1023.76 1023.84 1024.04 1024.04 1023.88
1015.41 1015.58 1015.56 1015.33 1015.36 1015.66 1015.29 1014.75 1013.81 1013.48 1013.32 1013.49 1014.02 1014.31 1014.29 1014.67 1014.77 1014.89 1015.27 1015.76 1016.24 1016.84 1017.56 1018.23 1018.61 1019.17 1019.73 1020.28 1020.92 1021.37 1021.66 1021.72 1021.59 1021.52 1021.57 1021.57 1021.67 1021.79 1022.03 1022.24 1022.48 1022.69 1023.08 1023.13 1023.20 1023.48 1023.95 1023.90 1023.73
1015.61 1015.81 1015.76 1015.93 1015.64 1015.33 1015.43 1014.54 1013.04 1011.89 1011.96 1012.34 1012.76 1012.85 1013.14 1013.43 1013.94 1014.46 1014.92 1015.37 1015.84 1016.41 1016.95 1017.57 1018.09 1018.56 1019.04 1019.65 1020.38 1020.95 1021.19 1021.27 1021.45 1021.37 1021.37 1021.19 1021.15 1021.23 1021.44 1021.59 1021.89 1022.18 1022.51 1022.68 1022.76 1023.01 1023.46 1023.69 1023.67
1015.79 1015.83 1015.99 1016.22 1016.66 1016.43 1015.76 1015.28 1012.74 1011.55 1011.41 1011.72 1011.95 1012.31 1012.29 1012.56 1012.87 1013.35 1014.10 1014.85 1015.35 1015.74 1016.31 1016.79 1017.44 1018.06 1018.51 1019.10 1019.70 1020.35 1020.71 1021.04 1021.00 1020.91 1020.80 1020.67 1020.62 1020.69 1020.76 1020.94 1021.27 1021.56 1021.79 1022.00 1022.03 1022.25 1022.62 1023.06 1023.30
1015.83 1016.03 1016.34 1016.59 1016.96 1017.07 1015.97 1015.92 1012.18 1011.41 1011.38 1011.15 1011.21 1011.49 1011.47 1011.65 1011.93 1012.61 1013.18 1013.75 1014.36 1015.10 1015.73 1016.27 1016.88 1017.50 1017.95 1018.51 1019.00 1019.68 1020.25 1020.27 1020.31 1020.47 1020.49 1020.41 1020.28 1020.20 1020.17 1020.35 1020.60 1020.87 1021.06 1021.12 1021.36 1021.53 1021.87 1022.11 1022.43
1016.04 1016.41 1016.80 1017.11 1017.61 1017.69 1015.48 1015.02 1011.87 1010.91 1009.55 1009.94 1010.38 1010.68 1010.72 1011.17 1011.52 1011.92 1012.43 1013.13 1013.90 1014.51 1015.23 1015.93 1016.54 1017.02 1017.40 1017.92 1018.44 1018.96 1019.56 1019.98 1020.28 1020.32 1020.36 1020.08 1019.98 1019.86 1019.79 1019.82 1019.96 1020.02 1020.21 1020.45 1020.58 1020.82 1021.09 1021.34 1021.49
1016.52 1017.32 1017.84 1018.24 1018.25 1016.84 1014.92 1014.40 1010.71 1009.04 1008.36 1008.19 1008.91 1009.64 1010.04 1010.51 1011.04 1011.61 1012.32 1012.94 1013.50 1014.16 1014.69 1015.38 1016.02 1016.60 1016.96 1017.48 1017.99 1018.37 1018.70 1019.23 1019.56 1019.70 1019.75 1019.78 1019.62 1019.47 1019.39 1019.38 1019.42 1019.46 1019.44 1019.64 1019.91 1020.19 1020.39 1020.61 1020.82
1016.86 1017.40 1017.81 1017.77 1017.72 1016.33 1014.52 1012.75 1009.09 1007.42 1006.78 1007.06 1007.50 1008.39 1009.48 1010.32 1010.45 1010.97 1011.57 1012.17 1012.86 1013.48 1014.14 1014.76 1015.39 1016.05 1016.50 1016.98 1017.43 1017.81 1018.12 1018.52 1018.72 1018.86 1019.02 1019.13 1019.13 1018.93 1018.75 1018.74 1018.75 1018.77 1018.83 1018.97 1019.18 1019.43 1019.68 1019.99 1020.09
1016.80 1017.25 1017.16 1017.49 1017.20 1016.72 1013.93 1011.29 1008.40 1007.04 1006.71 1007.12 1007.69 1008.64 1009.26 1009.83 1010.19 1010.53 1011.15 1011.59 1012.29 1013.04 1013.52 1014.04 1014.73 1015.33 1015.83 1016.23 1016.79 1017.22 1017.51 1017.88 1018.04 1018.16 1018.50 1018.56 1018.49 1018.31 1018.16 1018.12 1018.34 1018.24 1018.28 1018.42 1018.66 1019.01 1019.22 1019.37 1019.44
1016.68 1017.20 1017.42 1017.85 1017.84 1016.87 1013.80 1011.56 1008.76 1007.66 1007.30 1007.52 1008.03 1008.38 1008.93 1009.39 1009.99 1010.43 1010.89 1011.32 1011.86 1012.30 1012.89 1013.58 1014.06 1014.55 1015.00 1015.59 1016.06 1016.48 1016.79 1017.10 1017.35 1017.73 1017.90 1017.93 1017.78 1017.78 1017.68 1017.76 1017.84 1017.92 1017.90 1018.05 1018.34 1018.41 1018.55 1018.80 1018.82
1017.10 1017.19 1017.38 1017.61 1017.46 1016.56 1014.61 1011.35 1008.03 1007.47 1007.11 1007.04 1007.58 1007.91 1008.32 1008.92 1009.51 1009.92 1010.39 1010.77 1011.32 1011.85 1012.46 1013.00 1013.57 1014.09 1014.62 1014.95 1015.34 1015.77 1016.09 1016.41 1016.80 1017.05 1017.06 1017.07 1017.10 1017.09 1017.18 1017.21 1017.33 1017.49 1017.58 1017.64 1017.82 1017.91 1018.02 1018.14 1018.14
1016.01 1016.29 1016.75 1017.49 1017.01 1016.15 1014.72 1010.75 1007.72 1007.10 1006.77 1006.79 1007.11 1007.66 1008.03 1008.45 1008.90 1009.47 1009.92 1010.38 1010.92 1011.38 1011.91 1012.34 1012.81 1013.22 1013.53 1013.93 1014.49 1014.90 1015.27 1015.72 1016.08 1016.22 1016.24 1016.36 1016.41 1016.49 1016.59 1016.72 1016.87 1016.96 1017.06 1017.06 1017.26 1017.43 1017.36 1017.54 1017.62
Wind_Speed
8 11 0 5 5 4 1 3 4 4 4 0 1 6 9 4 3 3 1 15 15 11 7 8 12 8 9 9 7 8 9 10 11 11 11 12 13 13 13 14 13 13 15 14 15 15 15 14 13
5 7 5 2 5 2 1 1 7 4 4 4 5 5 5 2 4 6 6 17 16 13 8 6 12 8 10 9 7 8 7 10 10 10 11 11 12 12 12 13 11 14 13 13 14 14 14 14 13
6 4 3 3 2 2 4 2 7 4 4 1 3 5 4 3 5 8 5 15 12 11 11 9 13 10 9 10 8 8 7 8 10 9 9 10 11 11 11 12 13 12 13 12 12 12 13 14 13
3 6 5 2 3 6 8 7 8 6 3 1 6 7 5 4 12 9 9 16 16 12 8 13 13 11 10 9 8 8 6 8 7 8 9 8 10 10 10 10 11 11 11 11 11 11 12 13 12
4 3 1 3 0 2 5 8 8 7 6 0 3 5 5 4 9 9 9 14 15 10 8 9 14 12 10 10 9 8 7 6 5 7 7 6 8 8 8 8 9 9 9 9 9 9 10 11 11
4 2 2 2 3 5 3 6 7 6 5 2 6 6 3 7 9 8 8 11 15 13 10 8 13 13 11 10 9 8 7 5 6 5 6 6 6 6 6 8 8 8 8 8 8 8 8 10 10
4 3 4 2 3 3 5 7 5 6 7 1 4 5 4 5 9 8 9 9 12 12 10 8 7 9 11 11 9 8 7 6 5 4 4 3 3 3 3 5 6 6 6 6 6 6 7 7 8
3 3 4 3 4 2 2 3 3 8 1 1 3 7 6 7 10 9 7 8 11 10 11 9 8 7 7 7 12 9 7 6 5 5 4 4 4 3 3 2 3 4 5 5 5 5 5 5 5
2 4 3 5 1 5 5 4 2 5 6 2 2 5 7 13 11 7 5 5 5 7 8 9 9 7 7 7 8 11 10 8 8 7 7 6 3 5 4 5 2 2 3 4 5 5 5 5 6
4 3 2 3 3 5 6 5 6 3 4 3 6 6 8 11 8 10 8 8 7 7 7 11 9 7 8 8 6 7 6 5 5 5 6 2 4 5 7 7 6 5 4 5 6 7 7 7 3
2 4 2 4 4 3 6 5 7 6 4 8 13 14 12 7 9 10 8 9 10 9 5 8 8 8 12 7 5 3 3 4 4 6 6 5 3 2 1 1 2 2 6 2 5 5 3 5 4
2 1 4 1 3 4 2 1 3 6 8 3 13 19 11 10 11 10 10 10 9 8 10 8 8 7 7 6 5 5 5 4 4 5 5 3 1 2 2 2 4 4 3 4 4 3 4 4 5
2 2 3 5 2 2 3 2 4 5 9 7 14 15 15 12 10 9 11 10 9 10 9 9 8 8 7 6 5 4 5 4 5 5 6 4 4 3 3 3 3 4 3 3 3 3 3 4 5
2 1 3 4 4 2 2 4 3 8 7 8 15 13 12 14 14 9 9 11 11 12 12 10 9 8 8 6 6 5 4 5 4 4 6 7 5 4 3 3 4 4 3 3 3 3 3 4 4
2 2 5 4 4 4 4 7 12 10 4 11 10 12 11 12 12 14 14 11 12 11 14 12 11 9 8 8 7 5 5 4 4 5 6 7 6 6 5 3 4 4 3 4 2 3 3 4 4
2 1 1 5 7 4 6 10 8 9 9 9 10 9 10 12 11 11 11 10 10 11 13 12 11 10 9 7 6 5 5 4 4 4 4 6 7 7 6 4 4 4 3 3 2 2 3 4 4
2 4 5 2 8 4 5 7 7 8 10 10 10 10 11 10 9 10 11 11 11 11 14 13 10 12 10 8 5 5 6 5 5 4 4 6 7 7 6 4 5 5 4 3 3 3 3 3 4
3 3 3 5 7 7 5 12 9 7 9 12 11 10 10 12 14 11 11 10 10 10 12 14 10 10 9 6 5 3 4 4 4 5 5 7 6 7 6 5 6 5 3 4 3 4 3 4 4
2 2 4 1 2 4 9 10 13 11 9 10 10 10 10 13 13 13 11 11 10 9 10 12 10 9 8 3 4 3 4 3 4 5 8 8 7 7 7 5 5 5 4 5 5 3 4 3 2
3 4 6 2 4 3 6 13 12 11 11 16 14 11 11 8 9 10 11 10 11 10 10 10 12 10 8 6 4 4 4 4 4 5 6 7 7 7 6 6 6 6 4 6 6 5 2 2 3
3 3 3 3 6 5 3 11 6 7 7 10 11 11 10 12 14 12 11 13 10 11 11 11 11 11 8 8 4 2 1 2 0 3 3 6 8 8 8 7 6 6 5 5 6 5 6 4 2
3 1 2 3 5 3 4 8 8 5 8 8 11 11 11 11 10 15 16 10 12 13 9 10 10 10 9 10 6 7 5 6 4 4 4 5 7 8 8 8 7 7 5 6 6 5 6 4 5
6 0 2 2 2 4 5 2 12 3 5 10 11 11 11 11 14 15 17 17 14 11 11 10 10 9 9 9 9 7 7 4 3 3 6 7 6 7 7 7 7 7 6 6 7 6 6 5 4
2 2 3 2 2 2 7 7 9 6 10 5 6 10 12 10 10 12 14 13 13 10 9 9 11 9 9 10 10 11 10 7 5 5 5 5 4 5 6 7 7 7 7 7 7 7 8 7 6
2 6 4 3 2 8 4 4 13 6 9 11 18 13 13 10 10 10 13 11 10 12 11 11 12 11 10 10 9 10 10 9 9 7 5 5 4 3 6 6 7 6 8 7 6 7 7 7 5
6 8 6 5 3 5 5 8 10 8 11 9 12 13 10 10 9 11 11 14 13 13 12 11 13 10 10 10 10 8 9 6 6 7 5 5 5 5 5 6 7 7 7 7 6 5 5 6 6
3 4 6 1 3 2 5 9 12 3 3 5 10 10 12 10 10 10 9 11 11 11 14 14 11 10 10 11 8 8 8 8 8 8 6 5 5 5 7 7 6 6 7 7 6 5 6 6 6
3 2 2 2 4 5 7 6 9 4 6 5 9 13 10 9 9 9 9 10 8 10 11 9 10 13 10 9 9 8 9 8 8 6 8 8 7 6 7 7 7 6 6 6 6 5 5 6 5
2 3 4 3 6 6 3 8 6 9 9 12 11 11 12 11 10 10 9 9 9 8 9 11 9 10 9 9 8 8 8 8 7 7 7 8 7 7 7 7 7 7 7 6 6 6 6 7 7
7 9 7 6 5 4 5 11 5 5 10 9 10 9 8 8 10 9 9 9 10 11 10 13 11 12 12 10 9 11 8 8 8 8 8 7 8 6 7 7 6 6 7 7 7 7 7 7 7
Wind_Direction
320 310 213 40 45 62 139 55 100 66 64 140 341 92 123 56 47 162 135 120 128 136 138 129 129 116 111 107 99 103 80 85 82 86 82 70 67 60 72 60 60 61 66 51 59 50 49 48 48
315 316 31 74 81 78 4 81 89 78 141 132 55 119 51 82 83 136 105 136 141 139 125 127 136 134 115 120 102 103 90 92 75 75 73 71 70 66 56 72 54 58 57 57 52 51 47 46 48
305 179 69 107 120 170 123 157 132 129 81 67 89 65 108 97 117 150 173 141 135 130 130 151 139 141 135 123 115 121 101 85 92 83 77 73 69 62 60 56 55 50 53 54 54 49 47 45 50
328 360 3 87 206 330 132 161 149 117 63 11 107 71 51 317 151 165 155 117 119 130 140 141 147 143 142 139 128 128 107 112 82 80 71 73 62 65 57 52 60 54 47 42 50 47 46 44 48
29 60 351 272 17 135 130 154 141 148 137 157 104 144 97 21 118 143 140 119 128 139 140 140 151 152 150 145 136 134 123 108 110 90 86 71 68 66 60 46 54 52 45 42 35 47 44 44 46
357 87 24 294 144 155 113 118 105 128 147 145 83 101 152 157 124 164 138 133 144 144 147 154 156 156 155 153 145 145 144 133 126 115 87 74 67 55 46 48 42 37 38 37 34 30 41 39 38
126 81 244 253 235 126 161 141 112 148 121 97 142 81 164 161 164 161 156 142 144 150 149 142 153 162 161 159 156 153 154 156 147 142 114 89 85 79 68 34 36 24 23 23 24 22 17 28 29
112 101 290 266 197 127 176 82 111 92 122 125 103 159 185 203 171 160 155 145 140 152 156 155 162 160 155 169 164 166 166 172 173 169 179 198 215 212 162 28 6 4 3 4 3 357 347 340 349
55 52 302 305 219 164 148 105 34 126 117 79 39 148 175 152 146 149 139 132 143 152 163 162 171 175 158 165 173 170 176 183 186 192 211 219 210 247 268 196 228 293 315 312 318 317 312 311 308
97 95 257 336 46 150 157 124 148 119 110 110 75 54 112 141 152 165 165 161 160 173 171 170 178 176 161 173 177 164 183 187 191 205 223 242 241 222 209 201 215 223 244 262 272 283 297 314 305
188 184 334 357 36 37 152 124 161 142 196 195 174 164 158 156 169 173 180 175 177 181 180 178 171 163 162 173 177 178 184 189 202 212 213 217 169 207 253 220 273 245 261 262 279 293 297 286 271
76 105 87 150 33 7 56 275 165 163 212 163 163 163 158 167 182 185 190 188 183 179 184 181 168 162 172 151 177 175 179 188 190 200 186 164 214 277 246 204 217 211 235 233 227 237 254 257 284
235 218 80 130 95 288 349 327 232 239 243 145 145 157 170 177 190 196 194 195 183 180 184 180 173 167 177 172 183 172 195 181 195 187 191 173 191 227 238 243 219 219 217 222 253 257 282 299 297
302 151 194 175 208 249 183 261 153 253 223 174 148 171 177 181 193 201 197 201 184 183 183 176 172 177 172 184 181 196 184 196 195 186 203 195 189 207 225 252 248 242 215 236 227 234 273 279 289
319 326 307 219 204 246 129 296 231 223 205 181 180 174 187 201 194 198 205 196 182 186 179 177 173 171 178 188 193 190 195 179 185 201 199 201 199 213 220 228 247 242 246 240 245 298 319 310 299
233 60 188 263 167 216 105 271 276 209 171 198 199 203 197 203 204 202 199 189 184 171 175 177 178 178 177 185 188 196 205 190 207 206 213 224 213 204 209 212 233 249 243 231 228 254 292 288 291
306 235 204 276 188 141 163 271 277 183 175 205 211 207 210 215 213 205 195 189 179 171 172 178 170 176 182 186 183 193 200 208 218 218 218 236 231 217 209 216 232 238 240 234 224 241 206 274 286
277 268 288 197 229 185 204 256 270 237 179 204 216 221 210 204 208 200 190 188 175 172 171 176 175 171 176 177 182 204 221 225 215 219 220 227 227 222 208 220 228 227 228 245 240 229 239 231 258
299 329 306 242 201 179 230 258 258 231 221 215 221 220 212 208 207 194 184 179 175 168 166 174 166 177 159 160 175 200 209 214 228 221 223 223 223 222 213 217 219 221 220 232 223 218 229 286 251
2 321 302 335 204 215 271 263 247 235 214 203 205 220 220 204 202 197 182 173 177 177 175 173 181 174 180 171 177 165 170 218 200 212 224 224 223 222 216 212 218 216 222 236 233 208 220 255 199
330 252 264 238 322 275 323 293 267 250 196 203 213 207 209 195 194 192 183 182 174 179 180 176 181 181 181 174 145 139 47 326 253 241 240 232 226 225 218 215 209 216 208 227 227 213 195 233 284
289 293 343 328 41 256 103 286 301 232 210 198 199 200 211 203 184 182 182 181 183 191 180 174 175 179 185 173 168 174 185 207 219 213 220 237 228 228 223 220 212 214 207 220 221 212 209 173 234
219 270 272 286 308 358 302 124 268 157 216 212 213 210 212 205 180 180 182 185 191 176 184 185 179 181 184 180 184 183 204 213 217 235 256 253 249 235 227 217 216 219 214 220 212 222 206 197 201
161 335 1 21 89 321 238 161 275 199 208 205 215 215 213 204 191 182 182 178 186 181 175 178 183 194 187 185 190 192 204 210 224 238 248 249 245 247 236 230 221 222 221 222 223 222 215 214 221
85 59 337 348 349 229 311 152 248 257 238 195 198 205 209 196 183 175 179 180 180 180 181 181 184 197 192 190 193 198 206 201 219 225 232 250 258 248 249 235 232 224 225 220 214 221 223 215 209
179 156 166 231 225 278 337 240 255 236 235 208 184 188 182 189 190 186 179 181 185 184 181 179 184 190 188 191 199 199 204 207 220 221 225 243 240 240 239 240 237 239 231 224 217 222 227 213 225
212 188 196 162 301 25 243 284 301 227 52 163 168 159 183 186 185 187 176 178 176 178 186 185 179 190 189 196 188 200 202 207 223 228 227 240 246 250 248 244 247 244 238 225 222 228 237 228 227
152 213 82 356 232 253 281 268 241 257 220 188 174 183 191 183 181 183 180 180 181 181 181 177 184 192 194 190 194 203 208 210 217 215 232 234 245 242 249 252 249 254 249 237 227 235 238 233 233
115 266 215 162 166 189 289 266 221 233 223 194 201 197 185 183 186 189 189 188 183 176 177 188 189 187 194 193 194 198 206 208 207 215 226 229 238 235 237 235 238 241 247 245 239 242 242 238 244
174 188 164 133 255 233 156 272 272 300 223 205 202 199 197 182 186 187 185 181 184 188 186 194 194 193 199 195 189 203 198 198 208 217 223 223 231 233 233 236 234 239 241 241 235 244 242 236 245